Location: Saluda
(35.2377°N, 82.3468°W)
Time: 11:51:40
(UTC+00:00)

Courier 1B Rocket - Visible Passes

Search period start: 05 October 2022 00:00
Search period end: 15 October 2022 00:00
Orbit: 920 x 1202 km, 28.2° (Epoch: 04 October)

Date Brightness Start Highest point End Pass type
(mag) Time Alt. Az. Time Alt. Az. Time Alt. Az.
05 Oct 5.6 01:32:42 10° WSW 01:38:00 43° SSW 01:38:00 43° SSW visible
06 Oct 5.5 00:31:34 10° WSW 00:38:01 46° S 00:40:42 30° SE visible
06 Oct 7.0 02:25:01 10° WSW 02:27:04 20° WSW 02:27:04 20° WSW visible
06 Oct 5.8 23:30:27 10° WSW 23:37:02 43° S 23:43:13 10° ESE visible
07 Oct 5.6 01:23:46 10° WSW 01:29:46 44° SSW 01:29:46 44° SSW visible
08 Oct 5.6 00:22:32 10° WSW 00:29:09 47° S 00:32:27 26° ESE visible
08 Oct 6.9 02:16:14 10° WSW 02:18:49 22° WSW 02:18:49 22° WSW visible
08 Oct 5.8 23:21:18 10° WSW 23:28:07 47° S 23:34:29 10° ESE visible
09 Oct 5.7 01:14:52 10° WSW 01:21:12 41° SSW 01:21:31 40° S visible
10 Oct 5.7 00:13:32 10° WSW 00:20:14 46° S 00:24:14 22° SE visible
10 Oct 6.8 02:07:35 10° WSW 02:10:36 22° SW 02:10:36 22° SW visible
11 Oct 6.0 01:06:03 10° W 01:12:15 35° SSW 01:13:21 33° S visible
12 Oct 6.0 00:04:36 10° W 00:11:17 42° SSW 00:16:08 17° SE visible
12 Oct 6.9 01:59:08 10° WSW 02:02:30 20° SW 02:02:30 20° SW visible
13 Oct 6.4 00:57:21 10° WSW 01:03:13 28° SSW 01:05:20 24° S visible
13 Oct 6.3 23:55:45 10° W 00:02:17 36° SSW 00:08:13 11° SE visible
14 Oct 7.1 01:51:09 10° WSW 01:54:36 15° SSW 01:54:36 15° SSW visible
